Location: Buena Vista Lake
(37.6001°N, 119.5170°W)
Time: 20:29:49
(UTC+00:00)

Cosmos 1674 Rocket - Pass Details

Date: 05 August 2024
Orbit: 599 x 625 km, 82.5° (Epoch: 12 September)

Event Time Altitude Azimuth Distance (km) Brightness Sun altitude
Rises 12:18:35 0° 357° (N) 2,918 7.4 -9.3°
Reaches altitude 10° 12:20:52 10° 1° (N) 2,008 6.6 -8.9°
Maximum altitude 12:25:15 59° 81° (E) 725 4.3 -8.1°
Drops below altitude 10° 12:29:37 10° 161° (SSE) 1,990 6.1 -7.4°
Sets 12:31:52 0° 165° (SSE) 2,890 6.9 -7.0°
